Weather History for KHWD - February, 2014

Change the Weather History Date:

Friday, February 28, 2014

  Actual Average Record
Temperature  
Mean Temperature 59 °F 54 °F  
Max Temperature 64 °F 62 °F 74 °F (2002)
Min Temperature 53 °F 47 °F 37 °F (2011)
Degree Days  
Heating Degree Days 6    
Month to date heating degree days 315  
Since 1 July heating degree days 1518  
Cooling Degree Days 0    
Month to date cooling degree days 0  
Year to date cooling degree days 0  
Growing Degree Days 7 (Base 50)    
Moisture  
Dew Point 51 °F    
Average Humidity 73    
Maximum Humidity 93    
Minimum Humidity 53    
Precipitation  
Precipitation 0.79 in - 0.79 in (2014)
Month to date precipitation 2.37  
Year to date precipitation 2.37  
Since 1 July precipitation 3.57  
Sea Level Pressure  
Sea Level Pressure 29.44 in    
Wind  
Wind Speed 12 mph (SE)    
Max Wind Speed 30 mph    
Max Gust Speed 38 mph    
Visibility 8 miles    
Events Rain    
T = Trace of Precipitation, MM = Missing Value Source: NWS Daily Summary

Daily Weather History Graph

Daily Weather History Graph

Search for Another Location

Airport or City:

Trip Planner

Search our weather history database for the weather conditions in past years. The results will help you decide how hot, cold, wet, or windy it might be!

Date:

Astronomy

Feb. 28, 2014 Rise Set
Actual Time 6:41 AM PST 6:01 PM PST
Civil Twilight 6:14 AM PST 6:27 PM PST
Nautical Twilight 5:44 AM PST 6:58 PM PST
Astronomical Twilight 5:14 AM PST 7:28 PM PST
Moon 5:59 AM PST (2/28) 5:44 PM PST (2/28)
Length of Visible Light 12h 12m
Length of Day
11h 20m
Waning Crescent, 0% of the Moon is Illuminated
Feb 28
Waning Crescent
Mar 1
New
Mar 8
First Quarter
Mar 16
Full
Mar 23
Last Quarter

Hourly Weather History & Observations

Time (PST) Temp. Dew Point Humidity Pressure Visibility Wind Dir Wind Speed Gust Speed Precip Events Conditions
12:54 AM 61.0 °F 42.1 °F 50% 29.52 in 9.0 mi SSE 27.6 mph 38.0 mph 0.00 in Rain Light Rain
1:54 AM 55.9 °F 48.0 °F 75% 29.49 in 10.0 mi SE 10.4 mph - 0.05 in Rain Light Rain
2:54 AM 54.0 °F 51.1 °F 90% 29.46 in 5.0 mi East 3.5 mph - 0.12 in Rain Rain
3:10 AM 53.6 °F 51.8 °F 94% 29.45 in 3.0 mi SSW 9.2 mph - 0.06 in Rain Heavy Rain
3:14 AM 53.6 °F 51.8 °F 94% 29.44 in 2.5 mi SE 9.2 mph - 0.10 in Rain Heavy Rain
3:26 AM 53.6 °F 51.8 °F 94% 29.44 in 3.0 mi SSE 18.4 mph 27.6 mph 0.16 in Rain Heavy Rain
3:54 AM 55.0 °F 52.0 °F 89% 29.44 in 7.0 mi ESE 12.7 mph - 0.20 in Rain Rain
4:54 AM 55.0 °F 52.0 °F 89% 29.43 in 9.0 mi SE 12.7 mph - 0.02 in Rain Light Rain
5:54 AM 54.0 °F 52.0 °F 93% 29.43 in 4.0 mi SE 6.9 mph - 0.17 in Rain Rain
6:03 AM 53.6 °F 51.8 °F 94% 29.40 in 2.5 mi ESE 4.6 mph - 0.05 in Rain Rain
6:18 AM 53.6 °F 53.6 °F 100% 29.40 in 1.8 mi East 4.6 mph - 0.18 in Rain Heavy Rain
6:29 AM 53.6 °F 51.8 °F 94% 29.40 in 3.0 mi Calm Calm - 0.22 in Rain Light Rain
6:34 AM 53.6 °F 51.8 °F 94% 29.40 in 7.0 mi East 4.6 mph - 0.22 in Rain Light Rain
6:54 AM 53.1 °F 52.0 °F 96% 29.41 in 10.0 mi NE 4.6 mph - 0.22 in Rain Light Rain
7:09 AM 53.6 °F 51.8 °F 94% 29.38 in 7.0 mi Calm Calm - 0.00 in Rain Light Rain
7:25 AM 53.6 °F 53.6 °F 100% 29.39 in 8.0 mi SSE 5.8 mph - 0.00 in Rain Light Rain
7:36 AM 53.6 °F 53.6 °F 100% 29.40 in 5.0 mi South 5.8 mph - 0.01 in Rain Light Rain
7:46 AM 53.6 °F 53.6 °F 100% 29.40 in 10.0 mi SSW 4.6 mph - 0.01 in Rain Light Rain
7:54 AM 54.0 °F 54.0 °F 100% 29.44 in 10.0 mi South 6.9 mph - 0.01 in   Overcast
7:56 AM 53.6 °F 53.6 °F 100% 29.41 in 10.0 mi SSE 8.1 mph - N/A   Overcast
8:30 AM 55.4 °F 53.6 °F 94% 29.43 in 10.0 mi South 11.5 mph - 0.00 in   Overcast
8:44 AM 55.4 °F 53.6 °F 94% 29.42 in 10.0 mi South 10.4 mph - 0.00 in   Mostly Cloudy
8:54 AM 55.9 °F 53.1 °F 90% 29.45 in 10.0 mi South 13.8 mph - 0.00 in   Mostly Cloudy
9:54 AM 57.9 °F 51.1 °F 78% 29.46 in 9.0 mi South 12.7 mph 21.9 mph 0.00 in Rain Light Rain
10:54 AM 57.9 °F 51.1 °F 78% 29.46 in 10.0 mi SSE 12.7 mph - 0.00 in   Mostly Cloudy
11:54 AM 57.9 °F 50.0 °F 75% 29.44 in 10.0 mi SSE 18.4 mph 23.0 mph N/A   Overcast
12:54 PM 57.0 °F 52.0 °F 83% 29.43 in 10.0 mi SSE 11.5 mph - 0.00 in   Overcast
1:54 PM 59.0 °F 51.1 °F 75% 29.41 in 10.0 mi SSE 13.8 mph 20.7 mph N/A   Mostly Cloudy
2:54 PM 59.0 °F 48.9 °F 69% 29.42 in 10.0 mi South 13.8 mph - 0.00 in   Mostly Cloudy
3:54 PM 55.9 °F 48.9 °F 77% 29.42 in 10.0 mi South 17.3 mph 27.6 mph 0.00 in Rain Light Rain
4:54 PM 57.0 °F 48.9 °F 74% 29.44 in 10.0 mi SSE 15.0 mph 21.9 mph 0.00 in   Overcast
5:54 PM 54.0 °F 50.0 °F 86% 29.45 in 8.0 mi SSE 11.5 mph 19.6 mph 0.00 in Rain Light Rain
6:54 PM 54.0 °F 50.0 °F 86% 29.47 in 10.0 mi SSE 11.5 mph - 0.00 in   Mostly Cloudy
7:54 PM 53.1 °F 48.9 °F 86% 29.48 in 10.0 mi SE 10.4 mph - N/A   Clear
8:54 PM 54.0 °F 48.0 °F 80% 29.49 in 10.0 mi ESE 8.1 mph - N/A   Mostly Cloudy
9:54 PM 54.0 °F 48.0 °F 80% 29.51 in 10.0 mi ESE 5.8 mph - 0.00 in Rain Light Rain
10:54 PM 53.1 °F 48.0 °F 83% 29.51 in 10.0 mi SE 6.9 mph - 0.00 in   Overcast
11:54 PM 54.0 °F 48.0 °F 80% 29.51 in 10.0 mi East 6.9 mph - 0.00 in   Mostly Cloudy